Time,TemperatureF,DewpointF,PressureIn,WindDirection,WindDirectionDegrees,WindSpeedMPH,WindSpeedGustMPH,Humidity,HourlyPrecipIn,Conditions,Clouds,dailyrainin,SoftwareType,DateUTC
2013-04-10 00:00:00,70.4,54.5,30.03,SSW,193,0.0,0.0,57,0.00,,---,0.00,VWS V14.01,2013-04-10 04:00:00,
2013-04-10 00:05:00,70.2,54.8,30.02,SSW,193,0.0,0.0,58,0.00,,---,0.00,VWS V14.01,2013-04-10 04:05:00,
2013-04-10 00:10:00,69.9,54.5,30.02,SSW,193,0.0,1.0,58,0.00,,---,0.00,VWS V14.01,2013-04-10 04:10:00,
2013-04-10 00:15:00,69.7,54.8,30.02,SSW,193,0.0,0.0,59,0.00,,---,0.00,VWS V14.01,2013-04-10 04:15:00,
2013-04-10 00:20:00,69.4,54.9,30.02,SSW,193,0.0,0.0,60,0.00,,---,0.00,VWS V14.01,2013-04-10 04:20:00,
2013-04-10 00:25:00,69.0,54.5,30.03,SSW,193,0.0,1.0,60,0.00,,---,0.00,VWS V14.01,2013-04-10 04:25:00,
2013-04-10 00:30:00,68.7,54.3,30.03,SSW,193,0.0,1.0,60,0.00,,---,0.00,VWS V14.01,2013-04-10 04:30:00,
2013-04-10 00:35:00,68.3,54.3,30.03,SSW,193,0.0,0.0,61,0.00,,---,0.00,VWS V14.01,2013-04-10 04:35:00,
2013-04-10 00:40:00,68.1,55.0,30.03,SSW,193,2.0,3.0,63,0.00,,---,0.00,VWS V14.01,2013-04-10 04:40:00,
2013-04-10 00:45:00,68.1,55.0,30.03,SSW,193,2.0,3.0,63,0.00,,---,0.00,VWS V14.01,2013-04-10 04:45:00,
2013-04-10 00:50:00,68.1,55.0,30.03,SSW,193,2.0,4.0,63,0.00,,---,0.00,VWS V14.01,2013-04-10 04:50:00,
2013-04-10 00:55:00,68.2,55.1,30.03,SSW,193,2.0,4.0,63,0.00,,---,0.00,VWS V14.01,2013-04-10 04:55:00,
2013-04-10 01:00:00,68.2,55.1,30.03,SSW,193,0.0,2.0,63,0.00,,---,0.00,VWS V14.01,2013-04-10 05:00:00,
2013-04-10 01:05:00,68.1,55.0,30.03,SSW,193,2.0,3.0,63,0.00,,---,0.00,VWS V14.01,2013-04-10 05:05:00,
2013-04-10 01:10:00,68.0,55.0,30.03,SSW,193,1.0,3.0,63,0.00,,---,0.00,VWS V14.01,2013-04-10 05:10:00,
2013-04-10 01:15:00,68.0,55.0,30.03,SSW,193,0.0,2.0,63,0.00,,---,0.00,VWS V14.01,2013-04-10 05:15:00,
2013-04-10 01:20:00,67.7,55.1,30.03,SSW,193,0.0,0.0,64,0.00,,---,0.00,VWS V14.01,2013-04-10 05:20:00,
2013-04-10 01:25:00,67.4,54.8,30.03,SSW,193,0.0,0.0,64,0.00,,---,0.00,VWS V14.01,2013-04-10 05:25:00,
2013-04-10 01:30:00,67.0,54.9,30.02,SSW,193,1.0,3.0,65,0.00,,---,0.00,VWS V14.01,2013-04-10 05:30:00,
2013-04-10 01:35:00,66.8,55.1,30.03,SSW,193,0.0,1.0,66,0.00,,---,0.00,VWS V14.01,2013-04-10 05:35:00,
2013-04-10 01:40:00,66.5,54.8,30.03,SSW,193,0.0,0.0,66,0.00,,---,0.00,VWS V14.01,2013-04-10 05:40:00,
2013-04-10 01:45:00,66.1,54.8,30.03,SSW,193,0.0,0.0,67,0.00,,---,0.00,VWS V14.01,2013-04-10 05:45:00,
2013-04-10 01:50:00,65.7,54.5,30.02,SSW,193,0.0,0.0,67,0.00,,---,0.00,VWS V14.01,2013-04-10 05:50:00,
2013-04-10 01:55:00,65.2,54.4,30.02,SSW,193,0.0,0.0,68,0.00,,---,0.00,VWS V14.01,2013-04-10 05:55:00,
2013-04-10 02:00:00,64.8,54.0,30.02,SSW,193,0.0,0.0,68,0.00,,---,0.00,VWS V14.01,2013-04-10 06:00:00,
2013-04-10 02:05:00,64.2,54.2,30.02,SSW,193,0.0,0.0,70,0.00,,---,0.00,VWS V14.01,2013-04-10 06:05:00,
2013-04-10 02:10:00,63.7,54.1,30.02,SSW,193,0.0,0.0,71,0.00,,---,0.00,VWS V14.01,2013-04-10 06:10:00,
2013-04-10 02:15:00,63.6,54.4,30.02,SSW,193,1.0,3.0,72,0.00,,---,0.00,VWS V14.01,2013-04-10 06:15:00,
2013-04-10 02:20:00,63.3,54.1,30.02,SSW,193,0.0,1.0,72,0.00,,---,0.00,VWS V14.01,2013-04-10 06:20:00,
2013-04-10 02:25:00,63.0,54.2,30.02,SSW,193,0.0,0.0,73,0.00,,---,0.00,VWS V14.01,2013-04-10 06:25:00,
2013-04-10 02:30:00,62.7,54.3,30.02,SSW,193,1.0,2.0,74,0.00,,---,0.00,VWS V14.01,2013-04-10 06:30:00,
2013-04-10 02:35:00,62.2,53.8,30.02,SSW,193,0.0,1.0,74,0.00,,---,0.00,VWS V14.01,2013-04-10 06:35:00,
2013-04-10 02:40:00,61.9,53.9,30.02,SSW,193,0.0,0.0,75,0.00,,---,0.00,VWS V14.01,2013-04-10 06:40:00,
2013-04-10 02:45:00,61.6,53.6,30.02,SSW,193,0.0,1.0,75,0.00,,---,0.00,VWS V14.01,2013-04-10 06:45:00,
2013-04-10 02:50:00,61.3,53.7,30.02,SSW,193,0.0,0.0,76,0.00,,---,0.00,VWS V14.01,2013-04-10 06:50:00,
2013-04-10 02:55:00,61.1,53.5,30.02,SSW,193,0.0,0.0,76,0.00,,---,0.00,VWS V14.01,2013-04-10 06:55:00,
2013-04-10 03:00:00,61.0,53.8,30.02,SSW,193,0.0,0.0,77,0.00,,---,0.00,VWS V14.01,2013-04-10 07:00:00,
2013-04-10 03:05:00,60.8,53.2,30.02,SSW,193,0.0,0.0,76,0.00,,---,0.00,VWS V14.01,2013-04-10 07:05:00,
2013-04-10 03:10:00,60.3,53.1,30.02,SSW,193,0.0,1.0,77,0.00,,---,0.00,VWS V14.01,2013-04-10 07:10:00,
2013-04-10 03:15:00,60.2,53.3,30.02,SSW,193,0.0,0.0,78,0.00,,---,0.00,VWS V14.01,2013-04-10 07:15:00,
2013-04-10 03:20:00,60.3,53.4,30.02,SSW,193,0.0,0.0,78,0.00,,---,0.00,VWS V14.01,2013-04-10 07:20:00,
2013-04-10 03:25:00,60.0,53.1,30.02,SSW,193,0.0,1.0,78,0.00,,---,0.00,VWS V14.01,2013-04-10 07:25:00,
2013-04-10 03:30:00,59.7,52.8,30.02,SSW,193,0.0,1.0,78,0.00,,---,0.00,VWS V14.01,2013-04-10 07:30:00,
2013-04-10 03:35:00,59.4,52.9,30.02,SSW,193,0.0,1.0,79,0.00,,---,0.00,VWS V14.01,2013-04-10 07:35:00,
2013-04-10 03:40:00,59.1,52.6,30.02,SSW,193,0.0,1.0,79,0.00,,---,0.00,VWS V14.01,2013-04-10 07:40:00,
2013-04-10 03:45:00,58.9,52.8,30.02,SSW,193,0.0,1.0,80,0.00,,---,0.00,VWS V14.01,2013-04-10 07:45:00,
2013-04-10 03:50:00,58.6,52.5,30.02,SSW,193,0.0,2.0,80,0.00,,---,0.00,VWS V14.01,2013-04-10 07:50:00,
2013-04-10 03:55:00,58.5,52.7,30.03,SSW,193,0.0,2.0,81,0.00,,---,0.00,VWS V14.01,2013-04-10 07:55:00,
2013-04-10 04:00:00,58.6,53.1,30.03,SSW,193,0.0,1.0,82,0.00,,---,0.00,VWS V14.01,2013-04-10 08:00:00,
2013-04-10 04:05:00,59.0,53.2,30.03,SSW,193,0.0,1.0,81,0.00,,---,0.00,VWS V14.01,2013-04-10 08:05:00,
2013-04-10 04:10:00,59.1,52.9,30.03,SSW,193,0.0,1.0,80,0.00,,---,0.00,VWS V14.01,2013-04-10 08:10:00,
2013-04-10 04:15:00,59.0,52.8,30.03,SSW,193,0.0,2.0,80,0.00,,---,0.00,VWS V14.01,2013-04-10 08:15:00,
2013-04-10 04:20:00,59.1,53.3,30.03,SSW,193,0.0,2.0,81,0.00,,---,0.00,VWS V14.01,2013-04-10 08:20:00,
2013-04-10 04:24:00,59.2,53.4,30.03,SSW,193,0.0,0.0,81,0.00,,---,0.00,VWS V14.01,2013-04-10 08:24:00,
2013-04-10 04:29:00,59.6,53.4,30.03,SSW,193,1.0,2.0,80,0.00,,---,0.00,VWS V14.01,2013-04-10 08:29:00,
2013-04-10 04:34:00,59.5,53.3,30.03,SSW,193,2.0,2.0,80,0.00,,---,0.00,VWS V14.01,2013-04-10 08:34:00,
2013-04-10 04:39:00,58.9,53.4,30.03,SSW,193,0.0,2.0,82,0.00,,---,0.00,VWS V14.01,2013-04-10 08:39:00,
2013-04-10 04:44:00,58.7,53.6,30.03,SSW,193,1.0,1.0,83,0.00,,---,0.00,VWS V14.01,2013-04-10 08:44:00,
2013-04-10 04:49:00,58.7,53.6,30.03,SSW,193,0.0,1.0,83,0.00,,---,0.00,VWS V14.01,2013-04-10 08:49:00,
2013-04-10 04:54:00,59.0,53.5,30.03,SSW,193,0.0,2.0,82,0.00,,---,0.00,VWS V14.01,2013-04-10 08:54:00,
2013-04-10 04:59:00,59.5,54.0,30.03,SSW,202,0.0,3.0,82,0.00,,---,0.00,VWS V14.01,2013-04-10 08:59:00,
2013-04-10 05:04:00,60.1,53.9,30.03,SSW,202,0.0,1.0,80,0.00,,---,0.00,VWS V14.01,2013-04-10 09:04:00,
2013-04-10 05:09:00,60.4,54.2,30.03,SSW,202,0.0,0.0,80,0.00,,---,0.00,VWS V14.01,2013-04-10 09:09:00,
2013-04-10 05:14:00,60.7,54.2,30.03,SSW,202,0.0,1.0,79,0.00,,---,0.00,VWS V14.01,2013-04-10 09:14:00,
2013-04-10 05:19:00,60.9,54.0,30.03,SSW,202,0.0,0.0,78,0.00,,---,0.00,VWS V14.01,2013-04-10 09:19:00,
2013-04-10 05:24:00,60.9,54.0,30.03,SSW,202,0.0,0.0,78,0.00,,---,0.00,VWS V14.01,2013-04-10 09:24:00,
2013-04-10 05:29:00,60.8,53.9,30.03,SSW,202,0.0,0.0,78,0.00,,---,0.00,VWS V14.01,2013-04-10 09:29:00,
2013-04-10 05:34:00,60.5,54.0,30.03,SW,218,0.0,2.0,79,0.00,,---,0.00,VWS V14.01,2013-04-10 09:34:00,
2013-04-10 05:39:00,60.4,53.9,30.03,SW,218,0.0,2.0,79,0.00,,---,0.00,VWS V14.01,2013-04-10 09:39:00,
2013-04-10 05:44:00,60.4,54.2,30.04,SW,218,0.0,0.0,80,0.00,,---,0.00,VWS V14.01,2013-04-10 09:44:00,
2013-04-10 05:49:00,60.8,54.3,30.04,SW,218,0.0,0.0,79,0.00,,---,0.00,VWS V14.01,2013-04-10 09:49:00,
2013-04-10 05:54:00,61.1,54.5,30.04,SW,218,0.0,0.0,79,0.00,,---,0.00,VWS V14.01,2013-04-10 09:54:00,
2013-04-10 05:59:00,61.0,54.1,30.04,SW,218,0.0,0.0,78,0.00,,---,0.00,VWS V14.01,2013-04-10 09:59:00,
2013-04-10 06:04:00,60.7,54.2,30.04,SW,218,0.0,0.0,79,0.00,,---,0.00,VWS V14.01,2013-04-10 10:04:00,
2013-04-10 06:09:00,60.1,53.9,30.04,SW,218,0.0,1.0,80,0.00,,---,0.00,VWS V14.01,2013-04-10 10:09:00,
2013-04-10 06:14:00,59.3,53.5,30.04,SW,218,1.0,2.0,81,0.00,,---,0.00,VWS V14.01,2013-04-10 10:14:00,
2013-04-10 06:19:00,58.6,53.5,30.04,SW,218,2.0,2.0,83,0.00,,---,0.00,VWS V14.01,2013-04-10 10:19:00,
2013-04-10 06:24:00,58.5,53.7,30.04,SW,218,1.0,2.0,84,0.00,,---,0.00,VWS V14.01,2013-04-10 10:24:00,
2013-04-10 06:29:00,58.9,53.8,30.04,SW,218,0.0,1.0,83,0.00,,---,0.00,VWS V14.01,2013-04-10 10:29:00,
2013-04-10 06:34:00,59.4,53.9,30.04,SW,218,0.0,1.0,82,0.00,,---,0.00,VWS V14.01,2013-04-10 10:34:00,
2013-04-10 06:39:00,59.3,53.8,30.04,SW,218,0.0,0.0,82,0.00,,---,0.00,VWS V14.01,2013-04-10 10:39:00,
2013-04-10 06:44:00,59.2,53.7,30.05,SW,218,0.0,0.0,82,0.00,,---,0.00,VWS V14.01,2013-04-10 10:44:00,
2013-04-10 06:49:00,59.2,53.7,30.05,SW,218,0.0,1.0,82,0.00,,---,0.00,VWS V14.01,2013-04-10 10:49:00,
2013-04-10 06:54:00,59.3,53.8,30.05,SW,218,0.0,0.0,82,0.00,,---,0.00,VWS V14.01,2013-04-10 10:54:00,
2013-04-10 06:59:00,59.3,53.8,30.05,SW,218,0.0,0.0,82,0.00,,---,0.00,VWS V14.01,2013-04-10 10:59:00,
2013-04-10 07:04:00,59.1,53.6,30.05,SW,218,0.0,2.0,82,0.00,,---,0.00,VWS V14.01,2013-04-10 11:04:00,
2013-04-10 07:09:00,58.8,53.7,30.05,SW,218,0.0,1.0,83,0.00,,---,0.00,VWS V14.01,2013-04-10 11:09:00,
2013-04-10 07:14:00,58.7,53.9,30.05,SW,218,0.0,1.0,84,0.00,,---,0.00,VWS V14.01,2013-04-10 11:14:00,
2013-04-10 07:19:00,58.7,53.6,30.05,SW,218,0.0,0.0,83,0.00,,---,0.00,VWS V14.01,2013-04-10 11:19:00,
2013-04-10 07:24:00,58.7,53.6,30.05,SW,218,0.0,0.0,83,0.00,,---,0.00,VWS V14.01,2013-04-10 11:24:00,
2013-04-10 07:29:00,58.7,53.9,30.05,SW,218,0.0,0.0,84,0.00,,---,0.00,VWS V14.01,2013-04-10 11:29:00,
2013-04-10 07:34:00,58.7,53.9,30.06,SW,218,1.0,1.0,84,0.00,,---,0.00,VWS V14.01,2013-04-10 11:34:00,
2013-04-10 07:39:00,58.5,54.0,30.06,SW,218,2.0,2.0,85,0.00,,---,0.00,VWS V14.01,2013-04-10 11:39:00,
2013-04-10 07:44:00,58.4,53.9,30.06,SW,218,0.0,3.0,85,0.00,,---,0.00,VWS V14.01,2013-04-10 11:44:00,
2013-04-10 07:49:00,58.6,54.4,30.06,SW,218,0.0,1.0,86,0.00,,---,0.00,VWS V14.01,2013-04-10 11:49:00,
2013-04-10 07:54:00,58.8,54.3,30.06,SW,218,0.0,0.0,85,0.00,,---,0.00,VWS V14.01,2013-04-10 11:54:00,
2013-04-10 07:59:00,59.1,54.3,30.06,SW,218,0.0,0.0,84,0.00,,---,0.00,VWS V14.01,2013-04-10 11:59:00,
2013-04-10 08:04:00,59.3,54.8,30.06,SW,218,2.0,2.0,85,0.00,,---,0.00,VWS V14.01,2013-04-10 12:04:00,
2013-04-10 08:09:00,59.3,54.8,30.05,SW,218,2.0,3.0,85,0.00,,---,0.00,VWS V14.01,2013-04-10 12:09:00,
2013-04-10 08:14:00,59.6,55.4,30.06,SW,218,0.0,2.0,86,0.00,,---,0.00,VWS V14.01,2013-04-10 12:14:00,
2013-04-10 08:19:00,59.9,55.4,30.06,SW,218,0.0,1.0,85,0.00,,---,0.00,VWS V14.01,2013-04-10 12:19:00,
2013-04-10 08:24:00,60.5,55.7,30.06,SW,218,0.0,1.0,84,0.00,,---,0.00,VWS V14.01,2013-04-10 12:24:00,
2013-04-10 08:29:00,61.0,55.8,30.06,SW,218,0.0,0.0,83,0.00,,---,0.00,VWS V14.01,2013-04-10 12:29:00,
2013-04-10 08:34:00,61.5,56.3,30.06,SW,218,0.0,0.0,83,0.00,,---,0.00,VWS V14.01,2013-04-10 12:34:00,
2013-04-10 08:39:00,62.2,57.0,30.06,SW,218,0.0,1.0,83,0.00,,---,0.00,VWS V14.01,2013-04-10 12:39:00,
2013-04-10 08:44:00,63.3,56.7,30.06,SW,218,0.0,0.0,79,0.00,,---,0.00,VWS V14.01,2013-04-10 12:44:00,
2013-04-10 08:49:00,64.3,57.7,30.07,SW,218,0.0,0.0,79,0.00,,---,0.00,VWS V14.01,2013-04-10 12:49:00,
2013-04-10 08:54:00,65.0,57.6,30.07,SW,218,0.0,1.0,77,0.00,,---,0.00,VWS V14.01,2013-04-10 12:54:00,
2013-04-10 08:59:00,66.0,57.5,30.07,SW,218,1.0,2.0,74,0.00,,---,0.00,VWS V14.01,2013-04-10 12:59:00,
2013-04-10 09:04:00,67.0,57.7,30.07,SW,218,1.0,2.0,72,0.00,,---,0.00,VWS V14.01,2013-04-10 13:04:00,
2013-04-10 09:09:00,67.8,57.3,30.07,SW,218,0.0,1.0,69,0.00,,---,0.00,VWS V14.01,2013-04-10 13:09:00,
2013-04-10 09:14:00,68.5,56.7,30.07,SW,218,0.0,2.0,66,0.00,,---,0.00,VWS V14.01,2013-04-10 13:14:00,
2013-04-10 09:19:00,69.6,56.9,30.07,SW,218,2.0,3.0,64,0.00,,---,0.00,VWS V14.01,2013-04-10 13:19:00,
2013-04-10 09:24:00,70.4,57.2,30.07,SW,218,2.0,2.0,63,0.00,,---,0.00,VWS V14.01,2013-04-10 13:24:00,
2013-04-10 09:29:00,71.0,57.3,30.07,SW,233,1.0,3.0,62,0.00,,---,0.00,VWS V14.01,2013-04-10 13:29:00,
2013-04-10 09:34:00,71.6,57.5,30.07,SW,236,0.0,3.0,61,0.00,,---,0.00,VWS V14.01,2013-04-10 13:34:00,
2013-04-10 09:39:00,72.3,56.7,30.07,SW,236,2.0,2.0,58,0.00,,---,0.00,VWS V14.01,2013-04-10 13:39:00,
2013-04-10 09:44:00,72.9,56.8,30.07,WSW,258,4.0,4.0,57,0.00,,---,0.00,VWS V14.01,2013-04-10 13:44:00,
2013-04-10 09:49:00,73.4,56.8,30.07,West,267,0.0,4.0,56,0.00,,---,0.00,VWS V14.01,2013-04-10 13:49:00,
2013-04-10 09:54:00,73.8,57.1,30.07,WNW,291,2.0,4.0,56,0.00,,---,0.00,VWS V14.01,2013-04-10 13:54:00,
2013-04-10 09:59:00,74.0,56.8,30.06,WNW,285,0.0,3.0,55,0.00,,---,0.00,VWS V14.01,2013-04-10 13:59:00,
2013-04-10 10:04:00,74.6,57.4,30.06,WNW,284,2.0,3.0,55,0.00,,---,0.00,VWS V14.01,2013-04-10 14:04:00,
2013-04-10 10:09:00,75.0,57.2,30.06,WNW,284,2.0,3.0,54,0.00,,---,0.00,VWS V14.01,2013-04-10 14:09:00,
2013-04-10 10:14:00,75.5,57.2,30.06,West,281,2.0,4.0,53,0.00,,---,0.00,VWS V14.01,2013-04-10 14:14:00,
2013-04-10 10:19:00,75.9,57.0,30.06,WNW,287,2.0,4.0,52,0.00,,---,0.00,VWS V14.01,2013-04-10 14:19:00,
2013-04-10 10:24:00,76.1,57.8,30.06,WNW,287,0.0,4.0,53,0.00,,---,0.00,VWS V14.01,2013-04-10 14:24:00,
2013-04-10 10:29:00,76.6,57.7,30.06,WSW,253,3.0,4.0,52,0.00,,---,0.00,VWS V14.01,2013-04-10 14:29:00,
2013-04-10 10:34:00,77.1,57.0,30.06,SW,232,1.0,5.0,50,0.00,,---,0.00,VWS V14.01,2013-04-10 14:34:00,
2013-04-10 10:39:00,78.0,57.3,30.06,NW,311,1.0,5.0,49,0.00,,---,0.00,VWS V14.01,2013-04-10 14:39:00,
2013-04-10 10:44:00,78.5,57.2,30.06,NW,311,4.0,4.0,48,0.00,,---,0.00,VWS V14.01,2013-04-10 14:44:00,
2013-04-10 10:49:00,79.1,57.2,30.06,West,267,1.0,5.0,47,0.00,,---,0.00,VWS V14.01,2013-04-10 14:49:00,
2013-04-10 10:54:00,79.5,57.5,30.06,WNW,292,4.0,7.0,47,0.00,,---,0.00,VWS V14.01,2013-04-10 14:54:00,
2013-04-10 10:58:00,80.2,57.6,30.06,WSW,246,3.0,7.0,46,0.00,,---,0.00,VWS V14.01,2013-04-10 14:58:00,
2013-04-10 11:03:00,80.7,56.8,30.06,North,355,2.0,5.0,44,0.00,,---,0.00,VWS V14.01,2013-04-10 15:03:00,
2013-04-10 11:08:00,80.9,57.0,30.06,NNW,343,3.0,6.0,44,0.00,,---,0.00,VWS V14.01,2013-04-10 15:08:00,
2013-04-10 11:13:00,80.6,57.3,30.05,WNW,302,5.0,7.0,45,0.00,,---,0.00,VWS V14.01,2013-04-10 15:13:00,
2013-04-10 11:18:00,81.0,57.7,30.05,WNW,286,2.0,5.0,45,0.00,,---,0.00,VWS V14.01,2013-04-10 15:18:00,
2013-04-10 11:23:00,81.6,57.6,30.05,NW,306,5.0,5.0,44,0.00,,---,0.00,VWS V14.01,2013-04-10 15:23:00,
2013-04-10 11:28:00,81.6,57.6,30.05,NW,312,3.0,6.0,44,0.00,,---,0.00,VWS V14.01,2013-04-10 15:28:00,
2013-04-10 11:33:00,81.7,57.7,30.05,NNW,348,2.0,6.0,44,0.00,,---,0.00,VWS V14.01,2013-04-10 15:33:00,
2013-04-10 11:38:00,82.3,58.2,30.05,West,279,2.0,8.0,44,0.00,,---,0.00,VWS V14.01,2013-04-10 15:38:00,
2013-04-10 11:43:00,82.8,58.0,30.05,WNW,296,0.0,6.0,43,0.00,,---,0.00,VWS V14.01,2013-04-10 15:43:00,
2013-04-10 11:48:00,83.2,57.8,30.05,NW,314,2.0,5.0,42,0.00,,---,0.00,VWS V14.01,2013-04-10 15:48:00,
2013-04-10 11:53:00,83.3,57.2,30.05,WNW,291,4.0,5.0,41,0.00,,---,0.00,VWS V14.01,2013-04-10 15:53:00,
2013-04-10 11:58:00,83.2,57.8,30.05,WSW,255,2.0,5.0,42,0.00,,---,0.00,VWS V14.01,2013-04-10 15:58:00,
2013-04-10 12:03:00,83.5,58.7,30.05,WNW,286,1.0,7.0,43,0.00,,---,0.00,VWS V14.01,2013-04-10 16:03:00,
2013-04-10 12:08:00,83.9,58.4,30.05,West,269,5.0,6.0,42,0.00,,---,0.00,VWS V14.01,2013-04-10 16:08:00,
2013-04-10 12:13:00,84.2,58.0,30.04,WSW,251,2.0,5.0,41,0.00,,---,0.00,VWS V14.01,2013-04-10 16:13:00,
2013-04-10 12:18:00,84.2,57.3,30.04,WSW,249,1.0,6.0,40,0.00,,---,0.00,VWS V14.01,2013-04-10 16:18:00,
2013-04-10 12:23:00,84.2,58.0,30.04,SSW,192,1.0,4.0,41,0.00,,---,0.00,VWS V14.01,2013-04-10 16:23:00,
2013-04-10 12:28:00,84.7,58.4,30.04,NW,317,4.0,7.0,41,0.00,,---,0.00,VWS V14.01,2013-04-10 16:28:00,
2013-04-10 12:33:00,84.5,57.5,30.03,WNW,291,4.0,6.0,40,0.00,,---,0.00,VWS V14.01,2013-04-10 16:33:00,
2013-04-10 12:38:00,84.5,56.8,30.03,NNW,335,4.0,7.0,39,0.00,,---,0.00,VWS V14.01,2013-04-10 16:38:00,
2013-04-10 12:43:00,84.5,57.5,30.03,West,263,1.0,6.0,40,0.00,,---,0.00,VWS V14.01,2013-04-10 16:43:00,
2013-04-10 12:48:00,85.1,57.4,30.02,NNW,332,3.0,5.0,39,0.00,,---,0.00,VWS V14.01,2013-04-10 16:48:00,
2013-04-10 12:53:00,85.6,56.4,30.02,North,360,3.0,6.0,37,0.00,,---,0.00,VWS V14.01,2013-04-10 16:53:00,
2013-04-10 12:58:00,85.5,56.3,30.02,WNW,303,3.0,5.0,37,0.00,,---,0.00,VWS V14.01,2013-04-10 16:58:00,
2013-04-10 13:03:00,85.5,57.0,30.02,NNW,329,3.0,5.0,38,0.00,,---,0.00,VWS V14.01,2013-04-10 17:03:00,
2013-04-10 13:08:00,85.7,57.2,30.01,West,268,6.0,7.0,38,0.00,,---,0.00,VWS V14.01,2013-04-10 17:08:00,
2013-04-10 13:13:00,86.1,57.5,30.01,West,261,1.0,6.0,38,0.00,,---,0.00,VWS V14.01,2013-04-10 17:13:00,
2013-04-10 13:18:00,86.6,57.2,30.01,WSW,244,3.0,4.0,37,0.00,,---,0.00,VWS V14.01,2013-04-10 17:18:00,
2013-04-10 13:23:00,87.3,57.1,30.01,WSW,240,7.0,7.0,36,0.00,,---,0.00,VWS V14.01,2013-04-10 17:23:00,
2013-04-10 13:28:00,87.5,56.5,30.00,SW,227,2.0,7.0,35,0.00,,---,0.00,VWS V14.01,2013-04-10 17:28:00,
2013-04-10 13:33:00,87.5,57.3,30.00,SW,230,0.0,8.0,36,0.00,,---,0.00,VWS V14.01,2013-04-10 17:33:00,
2013-04-10 13:38:00,87.8,57.5,30.00,SW,234,4.0,4.0,36,0.00,,---,0.00,VWS V14.01,2013-04-10 17:38:00,
2013-04-10 13:43:00,88.4,58.1,30.00,SW,216,1.0,7.0,36,0.00,,---,0.00,VWS V14.01,2013-04-10 17:43:00,
2013-04-10 13:48:00,88.2,57.9,29.99,SSE,155,0.0,10.0,36,0.00,,---,0.00,VWS V14.01,2013-04-10 17:48:00,
2013-04-10 13:53:00,88.7,59.9,29.99,South,175,4.0,8.0,38,0.00,,---,0.00,VWS V14.01,2013-04-10 17:53:00,
2013-04-10 13:58:00,89.1,56.3,29.99,West,279,2.0,7.0,33,0.00,,---,0.00,VWS V14.01,2013-04-10 17:58:00,
2013-04-10 14:03:00,89.3,57.3,29.98,SSW,195,7.0,11.0,34,0.00,,---,0.00,VWS V14.01,2013-04-10 18:03:00,
2013-04-10 14:08:00,89.2,57.2,29.99,SW,227,2.0,8.0,34,0.00,,---,0.00,VWS V14.01,2013-04-10 18:08:00,
2013-04-10 14:13:00,89.1,57.1,29.98,WSW,250,3.0,8.0,34,0.00,,---,0.00,VWS V14.01,2013-04-10 18:13:00,
2013-04-10 14:18:00,89.5,57.5,29.98,South,186,0.0,11.0,34,0.00,,---,0.00,VWS V14.01,2013-04-10 18:18:00,
2013-04-10 14:23:00,89.6,56.7,29.98,SSE,168,4.0,13.0,33,0.00,,---,0.00,VWS V14.01,2013-04-10 18:23:00,
2013-04-10 14:28:00,89.6,55.0,29.98,SSE,168,11.0,12.0,31,0.00,,---,0.00,VWS V14.01,2013-04-10 18:28:00,
2013-04-10 14:33:00,89.4,54.8,29.97,West,265,5.0,12.0,31,0.00,,---,0.00,VWS V14.01,2013-04-10 18:33:00,
2013-04-10 14:38:00,89.7,56.8,29.97,SW,216,1.0,9.0,33,0.00,,---,0.00,VWS V14.01,2013-04-10 18:38:00,
2013-04-10 14:43:00,90.4,53.8,29.97,WSW,239,4.0,10.0,29,0.00,,---,0.00,VWS V14.01,2013-04-10 18:43:00,
2013-04-10 14:48:00,90.0,54.4,29.97,WSW,237,3.0,13.0,30,0.00,,---,0.00,VWS V14.01,2013-04-10 18:48:00,
2013-04-10 14:53:00,90.2,55.5,29.97,SW,229,2.0,6.0,31,0.00,,---,0.00,VWS V14.01,2013-04-10 18:53:00,
2013-04-10 14:58:00,90.5,54.9,29.97,West,276,4.0,10.0,30,0.00,,---,0.00,VWS V14.01,2013-04-10 18:58:00,
2013-04-10 15:03:00,90.2,55.5,29.97,SSW,211,5.0,8.0,31,0.00,,---,0.00,VWS V14.01,2013-04-10 19:03:00,
2013-04-10 15:08:00,90.2,55.5,29.96,West,270,4.0,10.0,31,0.00,,---,0.00,VWS V14.01,2013-04-10 19:08:00,
2013-04-10 15:13:00,90.3,56.5,29.96,SSW,211,1.0,5.0,32,0.00,,---,0.00,VWS V14.01,2013-04-10 19:13:00,
2013-04-10 15:18:00,90.8,56.9,29.95,SSW,208,6.0,6.0,32,0.00,,---,0.00,VWS V14.01,2013-04-10 19:18:00,
2013-04-10 15:23:00,91.1,55.4,29.95,SSE,167,1.0,7.0,30,0.00,,---,0.00,VWS V14.01,2013-04-10 19:23:00,
2013-04-10 15:28:00,91.3,54.6,29.95,SW,233,2.0,8.0,29,0.00,,---,0.00,VWS V14.01,2013-04-10 19:28:00,
2013-04-10 15:33:00,91.1,54.5,29.94,WSW,252,3.0,7.0,29,0.00,,---,0.00,VWS V14.01,2013-04-10 19:33:00,
2013-04-10 15:38:00,91.0,56.2,29.94,SW,228,3.0,12.0,31,0.00,,---,0.00,VWS V14.01,2013-04-10 19:38:00,
2013-04-10 15:43:00,91.6,53.9,29.94,WNW,286,3.0,5.0,28,0.00,,---,0.00,VWS V14.01,2013-04-10 19:43:00,
2013-04-10 15:48:00,91.9,54.2,29.93,South,182,1.0,5.0,28,0.00,,---,0.00,VWS V14.01,2013-04-10 19:48:00,
2013-04-10 15:53:00,92.0,54.3,29.93,WSW,237,5.0,6.0,28,0.00,,---,0.00,VWS V14.01,2013-04-10 19:53:00,
2013-04-10 15:58:00,91.6,54.9,29.93,SW,214,6.0,8.0,29,0.00,,---,0.00,VWS V14.01,2013-04-10 19:58:00,
2013-04-10 16:03:00,91.3,56.5,29.93,South,173,5.0,10.0,31,0.00,,---,0.00,VWS V14.01,2013-04-10 20:03:00,
2013-04-10 16:08:00,90.9,57.8,29.93,SSW,194,3.0,17.0,33,0.00,,---,0.00,VWS V14.01,2013-04-10 20:08:00,
2013-04-10 16:13:00,90.6,57.6,29.92,SE,140,5.0,9.0,33,0.00,,---,0.00,VWS V14.01,2013-04-10 20:13:00,
2013-04-10 16:18:00,90.6,55.8,29.92,SSW,198,2.0,8.0,31,0.00,,---,0.00,VWS V14.01,2013-04-10 20:18:00,
2013-04-10 16:23:00,90.7,57.7,29.92,South,184,2.0,10.0,33,0.00,,---,0.00,VWS V14.01,2013-04-10 20:23:00,
2013-04-10 16:28:00,90.6,57.6,29.92,SSE,167,6.0,13.0,33,0.00,,---,0.00,VWS V14.01,2013-04-10 20:28:00,
2013-04-10 16:33:00,90.5,57.5,29.92,SSE,161,6.0,11.0,33,0.00,,---,0.00,VWS V14.01,2013-04-10 20:33:00,
2013-04-10 16:38:00,90.6,56.7,29.92,SSW,211,1.0,11.0,32,0.00,,---,0.00,VWS V14.01,2013-04-10 20:38:00,
2013-04-10 16:43:00,90.7,56.8,29.92,WSW,242,5.0,9.0,32,0.00,,---,0.00,VWS V14.01,2013-04-10 20:43:00,
2013-04-10 16:48:00,90.5,57.5,29.92,SSW,192,5.0,10.0,33,0.00,,---,0.00,VWS V14.01,2013-04-10 20:48:00,
2013-04-10 16:53:00,90.4,56.6,29.91,SSW,206,7.0,9.0,32,0.00,,---,0.00,VWS V14.01,2013-04-10 20:53:00,
2013-04-10 16:58:00,90.1,56.3,29.91,SW,223,6.0,11.0,32,0.00,,---,0.00,VWS V14.01,2013-04-10 20:58:00,
2013-04-10 17:03:00,89.9,57.0,29.91,SW,215,6.0,9.0,33,0.00,,---,0.00,VWS V14.01,2013-04-10 21:03:00,
2013-04-10 17:08:00,89.7,56.8,29.91,SW,220,4.0,12.0,33,0.00,,---,0.00,VWS V14.01,2013-04-10 21:08:00,
2013-04-10 17:13:00,89.6,57.5,29.91,SW,231,2.0,10.0,34,0.00,,---,0.00,VWS V14.01,2013-04-10 21:13:00,
2013-04-10 17:18:00,89.3,57.3,29.91,SSW,192,5.0,10.0,34,0.00,,---,0.00,VWS V14.01,2013-04-10 21:18:00,
2013-04-10 17:23:00,88.8,57.7,29.91,South,185,5.0,12.0,35,0.00,,---,0.00,VWS V14.01,2013-04-10 21:23:00,
2013-04-10 17:28:00,88.4,57.3,29.91,SSW,213,3.0,10.0,35,0.00,,---,0.00,VWS V14.01,2013-04-10 21:28:00,
2013-04-10 17:33:00,87.7,57.5,29.90,South,177,2.0,14.0,36,0.00,,---,0.00,VWS V14.01,2013-04-10 21:33:00,
2013-04-10 17:38:00,87.6,56.6,29.90,WSW,241,2.0,8.0,35,0.00,,---,0.00,VWS V14.01,2013-04-10 21:38:00,
2013-04-10 17:43:00,87.4,57.2,29.90,SSW,200,6.0,11.0,36,0.00,,---,0.00,VWS V14.01,2013-04-10 21:43:00,
2013-04-10 17:48:00,87.0,56.8,29.90,SW,219,5.0,9.0,36,0.00,,---,0.00,VWS V14.01,2013-04-10 21:48:00,
2013-04-10 17:53:00,86.8,56.7,29.90,SSW,207,5.0,10.0,36,0.00,,---,0.00,VWS V14.01,2013-04-10 21:53:00,
2013-04-10 17:58:00,86.6,56.5,29.90,SSE,167,1.0,12.0,36,0.00,,---,0.00,VWS V14.01,2013-04-10 21:58:00,
2013-04-10 18:03:00,86.5,57.2,29.90,SE,145,6.0,10.0,37,0.00,,---,0.00,VWS V14.01,2013-04-10 22:03:00,
2013-04-10 18:08:00,86.2,56.9,29.90,SSW,202,4.0,10.0,37,0.00,,---,0.00,VWS V14.01,2013-04-10 22:08:00,
2013-04-10 18:13:00,86.0,56.7,29.90,SSW,208,1.0,7.0,37,0.00,,---,0.00,VWS V14.01,2013-04-10 22:13:00,
2013-04-10 18:18:00,85.9,56.6,29.90,South,176,2.0,8.0,37,0.00,,---,0.00,VWS V14.01,2013-04-10 22:18:00,
2013-04-10 18:23:00,85.7,56.5,29.90,South,172,3.0,8.0,37,0.00,,---,0.00,VWS V14.01,2013-04-10 22:23:00,
2013-04-10 18:28:00,85.7,56.5,29.90,South,185,3.0,9.0,37,0.00,,---,0.00,VWS V14.01,2013-04-10 22:28:00,
2013-04-10 18:33:00,85.6,57.1,29.90,South,178,3.0,4.0,38,0.00,,---,0.00,VWS V14.01,2013-04-10 22:33:00,
2013-04-10 18:38:00,85.3,56.8,29.90,SSW,206,2.0,9.0,38,0.00,,---,0.00,VWS V14.01,2013-04-10 22:38:00,
2013-04-10 18:43:00,84.9,56.5,29.90,SSW,200,2.0,8.0,38,0.00,,---,0.00,VWS V14.01,2013-04-10 22:43:00,
2013-04-10 18:48:00,84.6,56.2,29.90,SW,225,4.0,7.0,38,0.00,,---,0.00,VWS V14.01,2013-04-10 22:48:00,
2013-04-10 18:53:00,84.3,56.0,29.90,SW,219,4.0,8.0,38,0.00,,---,0.00,VWS V14.01,2013-04-10 22:53:00,
2013-04-10 18:58:00,83.9,56.3,29.90,SSE,161,3.0,8.0,39,0.00,,---,0.00,VWS V14.01,2013-04-10 22:58:00,
2013-04-10 19:03:00,83.7,56.1,29.90,SSW,212,4.0,6.0,39,0.00,,---,0.00,VWS V14.01,2013-04-10 23:03:00,
2013-04-10 19:08:00,83.3,56.5,29.90,South,183,3.0,7.0,40,0.00,,---,0.00,VWS V14.01,2013-04-10 23:08:00,
2013-04-10 19:13:00,82.9,56.1,29.90,South,185,6.0,7.0,40,0.00,,---,0.00,VWS V14.01,2013-04-10 23:13:00,
2013-04-10 19:18:00,82.6,56.5,29.90,SSW,192,5.0,7.0,41,0.00,,---,0.00,VWS V14.01,2013-04-10 23:18:00,
2013-04-10 19:23:00,82.3,56.9,29.89,SSW,203,6.0,8.0,42,0.00,,---,0.00,VWS V14.01,2013-04-10 23:23:00,
2013-04-10 19:28:00,82.0,56.7,29.90,SSW,193,3.0,6.0,42,0.00,,---,0.00,VWS V14.01,2013-04-10 23:28:00,
2013-04-10 19:33:00,81.6,56.3,29.90,SW,215,4.0,8.0,42,0.00,,---,0.00,VWS V14.01,2013-04-10 23:33:00,
2013-04-10 19:38:00,81.2,56.6,29.90,SSW,200,4.0,8.0,43,0.00,,---,0.00,VWS V14.01,2013-04-10 23:38:00,
2013-04-10 19:43:00,80.9,55.7,29.90,SSW,205,4.0,10.0,42,0.00,,---,0.00,VWS V14.01,2013-04-10 23:43:00,
2013-04-10 19:48:00,80.6,56.1,29.90,SSW,192,0.0,7.0,43,0.00,,---,0.00,VWS V14.01,2013-04-10 23:48:00,
2013-04-10 19:53:00,80.4,56.5,29.90,SW,223,4.0,6.0,44,0.00,,---,0.00,VWS V14.01,2013-04-10 23:53:00,
2013-04-10 19:58:00,80.2,56.3,29.90,SW,227,4.0,7.0,44,0.00,,---,0.00,VWS V14.01,2013-04-10 23:58:00,
2013-04-10 20:03:00,80.0,56.2,29.90,South,190,3.0,8.0,44,0.00,,---,0.00,VWS V14.01,2013-04-11 00:03:00,
2013-04-10 20:08:00,79.8,56.0,29.90,SSW,200,5.0,9.0,44,0.00,,---,0.00,VWS V14.01,2013-04-11 00:08:00,
2013-04-10 20:13:00,79.5,56.3,29.90,South,188,5.0,6.0,45,0.00,,---,0.00,VWS V14.01,2013-04-11 00:13:00,
2013-04-10 20:18:00,79.3,56.8,29.90,SSW,198,7.0,7.0,46,0.00,,---,0.00,VWS V14.01,2013-04-11 00:18:00,
2013-04-10 20:23:00,79.1,56.6,29.90,SSW,198,2.0,7.0,46,0.00,,---,0.00,VWS V14.01,2013-04-11 00:23:00,
2013-04-10 20:28:00,78.8,56.3,29.90,South,190,5.0,8.0,46,0.00,,---,0.00,VWS V14.01,2013-04-11 00:28:00,
2013-04-10 20:33:00,78.5,56.6,29.91,SW,224,4.0,6.0,47,0.00,,---,0.00,VWS V14.01,2013-04-11 00:33:00,
2013-04-10 20:38:00,78.4,56.5,29.91,SSW,192,3.0,6.0,47,0.00,,---,0.00,VWS V14.01,2013-04-11 00:38:00,
2013-04-10 20:43:00,78.3,56.4,29.91,SW,220,2.0,7.0,47,0.00,,---,0.00,VWS V14.01,2013-04-11 00:43:00,
2013-04-10 20:48:00,78.2,56.3,29.91,SW,217,3.0,7.0,47,0.00,,---,0.00,VWS V14.01,2013-04-11 00:48:00,
2013-04-10 20:53:00,78.0,56.7,29.91,SSW,202,3.0,6.0,48,0.00,,---,0.00,VWS V14.01,2013-04-11 00:53:00,
2013-04-10 20:58:00,77.6,56.4,29.91,SW,218,4.0,6.0,48,0.00,,---,0.00,VWS V14.01,2013-04-11 00:58:00,
2013-04-10 21:03:00,77.4,56.2,29.91,SW,221,4.0,6.0,48,0.00,,---,0.00,VWS V14.01,2013-04-11 01:03:00,
2013-04-10 21:08:00,77.2,56.6,29.91,SW,215,2.0,5.0,49,0.00,,---,0.00,VWS V14.01,2013-04-11 01:08:00,
2013-04-10 21:13:00,77.1,56.5,29.91,SW,222,7.0,7.0,49,0.00,,---,0.00,VWS V14.01,2013-04-11 01:13:00,
2013-04-10 21:18:00,77.0,56.4,29.91,SW,225,1.0,5.0,49,0.00,,---,0.00,VWS V14.01,2013-04-11 01:18:00,
2013-04-10 21:23:00,76.8,56.2,29.91,SSW,200,3.0,7.0,49,0.00,,---,0.00,VWS V14.01,2013-04-11 01:23:00,
2013-04-10 21:28:00,76.7,56.1,29.91,South,187,4.0,5.0,49,0.00,,---,0.00,VWS V14.01,2013-04-11 01:28:00,
2013-04-10 21:33:00,76.5,56.5,29.91,South,190,1.0,4.0,50,0.00,,---,0.00,VWS V14.01,2013-04-11 01:33:00,
2013-04-10 21:38:00,76.3,56.3,29.91,SSW,199,3.0,4.0,50,0.00,,---,0.00,VWS V14.01,2013-04-11 01:38:00,
2013-04-10 21:43:00,76.1,56.1,29.92,SSW,207,3.0,5.0,50,0.00,,---,0.00,VWS V14.01,2013-04-11 01:43:00,
2013-04-10 21:48:00,76.0,56.6,29.92,South,173,6.0,7.0,51,0.00,,---,0.00,VWS V14.01,2013-04-11 01:48:00,
2013-04-10 21:53:00,75.8,56.4,29.92,SSW,209,5.0,6.0,51,0.00,,---,0.00,VWS V14.01,2013-04-11 01:53:00,
2013-04-10 21:58:00,75.8,56.9,29.92,SSW,209,2.0,7.0,52,0.00,,---,0.00,VWS V14.01,2013-04-11 01:58:00,
2013-04-10 22:03:00,75.8,57.5,29.92,SSW,212,5.0,7.0,53,0.00,,---,0.00,VWS V14.01,2013-04-11 02:03:00,
2013-04-10 22:08:00,75.7,57.4,29.92,SW,225,4.0,7.0,53,0.00,,---,0.00,VWS V14.01,2013-04-11 02:08:00,
2013-04-10 22:13:00,75.7,57.4,29.92,SSW,200,2.0,10.0,53,0.00,,---,0.00,VWS V14.01,2013-04-11 02:13:00,
2013-04-10 22:18:00,75.6,57.3,29.92,SW,215,5.0,5.0,53,0.00,,---,0.00,VWS V14.01,2013-04-11 02:18:00,
2013-04-10 22:23:00,75.6,57.8,29.92,SSW,213,1.0,7.0,54,0.00,,---,0.00,VWS V14.01,2013-04-11 02:23:00,
2013-04-10 22:28:00,75.5,57.7,29.92,SSW,200,0.0,7.0,54,0.00,,---,0.00,VWS V14.01,2013-04-11 02:28:00,
2013-04-10 22:33:00,75.5,57.7,29.92,WSW,243,2.0,2.0,54,0.00,,---,0.00,VWS V14.01,2013-04-11 02:33:00,
2013-04-10 22:38:00,75.3,57.5,29.92,WSW,258,0.0,3.0,54,0.00,,---,0.00,VWS V14.01,2013-04-11 02:38:00,
2013-04-10 22:43:00,75.1,57.8,29.92,WSW,258,0.0,4.0,55,0.00,,---,0.00,VWS V14.01,2013-04-11 02:43:00,
2013-04-10 22:48:00,75.0,57.8,29.92,WSW,258,1.0,1.0,55,0.00,,---,0.00,VWS V14.01,2013-04-11 02:48:00,
2013-04-10 22:53:00,74.8,57.6,29.92,SSE,159,0.0,4.0,55,0.00,,---,0.00,VWS V14.01,2013-04-11 02:53:00,
2013-04-10 22:58:00,75.1,57.3,29.93,SSE,159,1.0,2.0,54,0.00,,---,0.00,VWS V14.01,2013-04-11 02:58:00,
2013-04-10 23:03:00,75.2,57.4,29.93,SSE,159,0.0,1.0,54,0.00,,---,0.00,VWS V14.01,2013-04-11 03:03:00,
2013-04-10 23:08:00,75.0,57.2,29.93,SSE,159,0.0,0.0,54,0.00,,---,0.00,VWS V14.01,2013-04-11 03:08:00,
2013-04-10 23:13:00,74.7,57.5,29.93,SSE,159,0.0,1.0,55,0.00,,---,0.00,VWS V14.01,2013-04-11 03:13:00,
2013-04-10 23:18:00,74.3,57.6,29.93,SSE,159,0.0,0.0,56,0.00,,---,0.00,VWS V14.01,2013-04-11 03:18:00,
2013-04-10 23:23:00,74.0,57.8,29.93,SSE,159,0.0,0.0,57,0.00,,---,0.00,VWS V14.01,2013-04-11 03:23:00,
2013-04-10 23:28:00,73.8,57.6,29.93,SSE,159,0.0,0.0,57,0.00,,---,0.00,VWS V14.01,2013-04-11 03:28:00,
2013-04-10 23:33:00,73.6,57.9,29.93,SSE,159,0.0,0.0,58,0.00,,---,0.00,VWS V14.01,2013-04-11 03:33:00,
2013-04-10 23:38:00,73.3,57.7,29.92,SSE,159,2.0,3.0,58,0.00,,---,0.00,VWS V14.01,2013-04-11 03:38:00,
2013-04-10 23:43:00,73.1,57.9,29.92,SSE,159,0.0,3.0,59,0.00,,---,0.00,VWS V14.01,2013-04-11 03:43:00,
2013-04-10 23:48:00,73.0,57.8,29.92,SSE,159,0.0,3.0,59,0.00,,---,0.00,VWS V14.01,2013-04-11 03:48:00,
2013-04-10 23:53:00,72.9,57.8,29.93,SSE,159,0.0,1.0,59,0.00,,---,0.00,VWS V14.01,2013-04-11 03:53:00,
2013-04-10 23:58:00,72.7,58.0,29.93,SSE,159,0.0,1.0,60,0.00,,---,0.00,VWS V14.01,2013-04-11 03:58:00,